H1 CPF 2 NER 2021 1 13 9 013 01 glonass128 H2 1106401 9128 37867 2021 1 13 0 0 0 2021 1 16 23 45 0 900 1 1 0 0 0 1 H9 10 0 59227 0.00000 0 -21785892.901 -12866633.657 -2966745.351 10 0 59227 900.00000 0 -21333696.235 -12499422.605 -6117245.151 10 0 59227 1800.00000 0 -20501266.326 -12026217.808 -9148389.084 10 0 59227 2700.00000 0 -19290963.772 -11503976.555 -12000978.247 10 0 59227 3600.00000 0 -17718419.566 -10989250.193 -14619284.774 10 0 59227 4500.00000 0 -15812072.429 -10535606.013 -16952159.784 10 0 59227 5400.00000 0 -13612175.731 -10191188.973 -18954049.494 10 0 59227 6300.00000 0 -11169315.069 -9996528.813 -20585898.097 10 0 59227 7200.00000 0 -8542499.091 -9982687.244 -21815918.533 10 0 59227 8100.00000 0 -5796904.324 -10169824.947 -22620215.534 10 0 59227 9000.00000 0 -3001369.412 -10566249.766 -22983248.681 10 0 59227 9900.00000 0 -225744.722 -11167986.356 -22898126.784 10 0 59227 10800.00000 0 2461791.147 -11958884.990 -22366728.704 10 0 59227 11700.00000 0 4997335.446 -12911263.924 -21399649.365 10 0 59227 12600.00000 0 7323677.367 -13987056.846 -20015973.348 10 0 59227 13500.00000 0 9392426.120 -15139415.550 -18242881.993 10 0 59227 14400.00000 0 11165763.755 -16314698.732 -16115103.094 10 0 59227 15300.00000 0 12617751.591 -17454761.770 -13674215.414 10 0 59227 16200.00000 0 13735138.444 -18499450.023 -10967822.867 10 0 59227 17100.00000 0 14517639.948 -19389189.988 -8048615.549 10 0 59227 18000.00000 0 14977680.476 -20067569.081 -4973336.887 10 0 59227 18900.00000 0 15139611.722 -20483795.796 -1801677.614 10 0 59227 19800.00000 0 15038443.660 -20594937.454 1404881.640 10 0 59227 20700.00000 0 14718143.528 -20367842.565 4584256.556 10 0 59227 21600.00000 0 14229576.146 -19780668.295 7674951.554 10 0 59227 22500.00000 0 13628173.156 -18823950.182 10617236.069 10 0 59227 23400.00000 0 12971429.424 -17501170.424 13354282.923 10 0 59227 24300.00000 0 12316331.446 -15828801.657 15833248.207 10 0 59227 25200.00000 0 11716824.789 -13835824.660 18006273.448 10 0 59227 26100.00000 0 11221425.580 -11562739.774 19831392.400 10 0 59227 27000.00000 0 10871074.779 -9060112.161 21273326.718 10 0 59227 27900.00000 0 10697323.845 -6386709.754 22304156.754 10 0 59227 28800.00000 0 10720926.826 -3607309.059 22903855.741 10 0 59227 29700.00000 0 10950897.373 -790257.285 23060677.900 10 0 59227 30600.00000 0 11384070.399 1995110.965 22771393.209 10 0 59227 31500.00000 0 12005187.659 4681097.933 22041363.920 10 0 59227 32400.00000 0 12787505.266 7204201.594 20884460.380 10 0 59227 33300.00000 0 13693899.851 9507504.934 19322816.179 10 0 59227 34200.00000 0 14678429.397 11542797.651 17386425.409 10 0 59227 35100.00000 0 15688285.704 13272342.630 15112587.532 10 0 59227 36000.00000 0 16666058.692 14670213.459 12545208.256 10 0 59227 36900.00000 0 17552218.917 15723146.389 9733967.809 10 0 59227 37800.00000 0 18287714.702 16430869.937 6733370.943 10 0 59227 38700.00000 0 18816574.380 16805896.992 3601695.743 10 0 59227 39600.00000 0 19088402.941 16872786.798 399861.168 10 0 59227 40500.00000 0 19060665.894 16666906.978 -2809764.628 10 0 59227 41400.00000 0 18700661.443 16232747.301 -5964591.233 10 0 59227 42300.00000 0 17987094.807 15621856.556 -9003042.809 10 0 59227 43200.00000 0 16911185.259 14890490.612 -11865778.938 10 0 59227 44100.00000 0 15477256.323 14097072.577 -14496873.601 10 0 59227 45000.00000 0 13702781.937 13299574.445 -16844927.107 10 0 59227 45900.00000 0 11617884.894 12552933.192 -18864087.325 10 0 59227 46800.00000 0 9264307.607 11906612.797 -20514958.661 10 0 59227 47700.00000 0 6693898.182 11402417.204 -21765379.815 10 0 59227 48600.00000 0 3966675.580 11072648.147 -22591054.464 10 0 59227 49500.00000 0 1148555.596 10938686.509 -22976022.463 10 0 59227 50400.00000 0 -1691166.198 11010057.288 -22912962.698 10 0 59227 51300.00000 0 -4482468.467 11284017.149 -22403322.495 10 0 59227 52200.00000 0 -7157283.684 11745680.850 -21457272.191 10 0 59227 53100.00000 0 -9652091.095 12368679.679 -20093487.090 10 0 59227 54000.00000 0 -11910315.350 13116322.283 -18338762.549 10 0 59227 54900.00000 0 -13884431.752 13943207.084 -16227471.139 10 0 59227 55800.00000 0 -15537691.862 14797216.429 -13800873.982 10 0 59227 56700.00000 0 -16845399.721 15621806.918 -11106300.935 10 0 59227 57600.00000 0 -17795688.082 16358498.174 -8196216.733 10 0 59227 58500.00000 0 -18389765.172 16949454.495 -5127192.244 10 0 59227 59400.00000 0 -18641624.779 17340050.429 -1958801.478 10 0 59227 60300.00000 0 -18577234.811 17481312.525 1247533.891 10 0 59227 61200.00000 0 -18233240.923 17332135.189 4429729.934 10 0 59227 62100.00000 0 -17655241.738 16861178.451 7526233.196 10 0 59227 63000.00000 0 -16895709.450 16048369.003 10477198.367 10 0 59227 63900.00000 0 -16011643.776 14885942.626 13225629.059 10 0 59227 64800.00000 0 -15062057.637 13378985.084 15718461.057 10 0 59227 65700.00000 0 -14105399.352 11545449.240 17907568.742 10 0 59227 66600.00000 0 -13197018.171 9415647.505 19750676.925 10 0 59227 67500.00000 0 -12386777.828 7031239.923 21212162.277 10 0 59227 68400.00000 0 -11716916.440 4443758.493 22263730.491 10 0 59227 69300.00000 0 -11220240.894 1712726.986 22884957.349 10 0 59227 70200.00000 0 -10918730.245 -1096548.266 23063684.109 10 0 59227 71100.00000 0 -10822606.074 -3915427.874 22796259.882 10 0 59227 72000.00000 0 -10929908.927 -6674530.436 22087625.930 10 0 59227 72900.00000 0 -11226599.468 -9306360.434 20951239.354 10 0 59227 73800.00000 0 -11687181.617 -11747866.264 19408836.065 10 0 59227 74700.00000 0 -12275823.523 -13942823.753 17490035.683 10 0 59227 75600.00000 0 -12947931.483 -15843947.065 15231793.739 10 0 59227 76500.00000 0 -13652112.805 -17414639.222 12677709.412 10 0 59227 77400.00000 0 -14332446.745 -18630308.627 9877200.078 10 0 59227 78300.00000 0 -14930969.025 -19479195.461 6884556.794 10 0 59227 79200.00000 0 -15390265.472 -19962671.894 3757897.718 10 0 59227 80100.00000 0 -15656064.732 -20095001.928 558039.188 10 0 59227 81000.00000 0 -15679719.112 -19902569.647 -2652693.548 10 0 59227 81900.00000 0 -15420466.455 -19422607.451 -5811692.102 10 0 59227 82800.00000 0 -14847374.746 -18701477.542 -8857301.889 10 0 59227 83700.00000 0 -13940884.196 -17792579.594 -11730044.371 10 0 59227 84600.00000 0 -12693878.679 -16753973.985 -14373798.712 10 0 59227 85500.00000 0 -11112238.573 -15645822.618 -16736917.575 10 0 59228 0.00000 0 -9214849.600 -14527757.389 -18773253.313 10 0 59228 900.00000 0 -7033065.253 -13456289.767 -20443073.085 10 0 59228 1800.00000 0 -4609645.800 -12482372.098 -21713843.273 10 0 59228 2700.00000 0 -1997216.499 -11649216.566 -22560867.829 10 0 59228 3600.00000 0 743688.473 -10990463.141 -22967767.596 10 0 59228 4500.00000 0 3546914.579 -10528775.357 -22926791.589 10 0 59228 5400.00000 0 6343211.106 -10274922.103 -22438955.058 10 0 59228 6300.00000 0 9062884.915 -10227383.214 -21514002.659 10 0 59228 7200.00000 0 11638472.345 -10372493.773 -20170198.838 10 0 59228 8100.00000 0 14007317.814 -10685119.009 -18433950.952 10 0 59228 9000.00000 0 16113952.078 -11129829.044 -16339273.948 10 0 59228 9900.00000 0 17912171.945 -11662521.748 -13927108.526 10 0 59228 10800.00000 0 19366736.438 -12232423.172 -11244507.371 10 0 59228 11700.00000 0 20454610.832 -12784379.516 -8343706.442 10 0 59228 12600.00000 0 21165709.137 -13261342.726 -5281100.398 10 0 59228 13500.00000 0 21503106.911 -13606944.200 -2116142.732 10 0 59228 14400.00000 0 21482718.362 -13768047.959 1089807.658 10 0 59228 15300.00000 0 21132453.900 -13697176.004 4274670.948 10 0 59228 16200.00000 0 20490895.751 -13354704.488 7376839.294 10 0 59228 17100.00000 0 19605548.807 -12710739.234 10336355.764 10 0 59228 18000.00000 0 18530741.043 -11746592.828 13096057.444 10 0 59228 18900.00000 0 17325261.745 -10455802.175 15602661.999 10 0 59228 19800.00000 0 16049836.028 -8844644.363 17807778.328 10 0 59228 20700.00000 0 14764540.332 -6932129.341 19668823.443 10 0 59228 21600.00000 0 13526265.535 -4749469.064 21149829.685 10 0 59228 22500.00000 0 12386331.991 -2339043.912 22222128.280 10 0 59228 23400.00000 0 11388354.499 247092.461 22864897.323 10 0 59228 24300.00000 0 10566444.872 2949110.262 23065564.505 10 0 59228 25200.00000 0 9943826.157 5701626.766 22820057.104 10 0 59228 26100.00000 0 9531915.990 8436166.324 22132894.130 10 0 59228 27000.00000 0 9329917.565 11083758.050 21017117.898 10 0 59228 27900.00000 0 9324936.252 13577566.001 19494064.866 10 0 59228 28800.00000 0 9492618.337 15855444.532 17592978.205 10 0 59228 29700.00000 0 9798286.907 17862313.919 15350467.352 10 0 59228 30600.00000 0 10198528.998 19552257.811 12809822.642 10 0 59228 31500.00000 0 10643169.010 20890254.632 10020196.116 10 0 59228 32400.00000 0 11077546.507 21853469.638 7035662.533 10 0 59228 33300.00000 0 11445002.946 22432052.008 3914177.388 10 0 59228 34200.00000 0 11689472.144 22629401.766 716451.591 10 0 59228 35100.00000 0 11758063.934 22461893.654 -2495235.344 10 0 59228 36000.00000 0 11603529.878 21958068.166 -5658259.823 10 0 59228 36900.00000 0 11186504.247 21157322.939 -8710891.150 10 0 59228 37800.00000 0 10477422.523 20108159.491 -11593515.089 10 0 59228 38700.00000 0 9458033.251 18866059.780 -14249818.139 10 0 59228 39600.00000 0 8122436.422 17491083.323 -16627907.167 10 0 59228 40500.00000 0 6477602.027 16045287.928 -18681340.625 10 0 59228 41400.00000 0 4543344.894 14590084.755 -20370049.540 10 0 59228 42300.00000 0 2351755.629 13183641.153 -21661128.978 10 0 59228 43200.00000 0 -53889.084 11878442.412 -22529483.886 10 0 59228 44100.00000 0 -2620691.121 10719116.283 -22958316.481 10 0 59228 45000.00000 0 -5288104.382 9740612.407 -22939445.999 10 0 59228 45900.00000 0 -7990233.776 8966813.053 -22473455.334 10 0 59228 46800.00000 0 -10658362.807 8409632.611 -21569662.793 10 0 59228 47700.00000 0 -13223603.390 8068642.115 -20245920.866 10 0 59228 48600.00000 0 -15619556.938 7931232.402 -18528247.399 10 0 59228 49500.00000 0 -17784875.733 7973306.490 -16450297.827 10 0 59228 50400.00000 0 -19665618.221 8160469.424 -14052690.244 10 0 59228 51300.00000 0 -21217301.132 8449662.842 -11382197.765 10 0 59228 52200.00000 0 -22406564.461 8791173.139 -8490825.052 10 0 59228 53100.00000 0 -23212381.865 9130926.716 -5434787.981 10 0 59228 54000.00000 0 -23626768.407 9412974.228 -2273416.961 10 0 59228 54900.00000 0 -23654958.672 9582058.372 931994.428 10 0 59228 55800.00000 0 -23315050.344 9586156.855 4119372.960 10 0 59228 56700.00000 0 -22637130.486 9378893.727 7227058.848 10 0 59228 57600.00000 0 -21661922.941 8921718.300 10194985.938 10 0 59228 58500.00000 0 -20439014.729 8185760.932 12965827.115 10 0 59228 59400.00000 0 -19024736.207 7153288.621 15486084.142 10 0 59228 60300.00000 0 -17479783.474 5818700.022 17707102.501 10 0 59228 61200.00000 0 -15866681.599 4189018.514 19585993.269 10 0 59228 62100.00000 0 -14247193.235 2283862.377 21086446.054 10 0 59228 63000.00000 0 -12679779.027 134892.321 22179418.924 10 0 59228 63900.00000 0 -11217213.890 -2215242.218 22843693.273 10 0 59228 64800.00000 0 -9904456.750 -4714416.485 23066283.853 10 0 59228 65700.00000 0 -8776861.051 -7302943.386 22842696.420 10 0 59228 66600.00000 0 -7858799.677 -9915809.557 22177027.688 10 0 59228 67500.00000 0 -7162761.274 -12485144.758 21081904.824 10 0 59228 68400.00000 0 -6688955.912 -14942824.860 19578264.141 10 0 59228 69300.00000 0 -6425447.479 -17223102.525 17694971.346 10 0 59228 70200.00000 0 -6348808.523 -19265157.818 15468288.456 10 0 59228 71100.00000 0 -6425271.648 -21015463.351 12941195.326 10 0 59228 72000.00000 0 -6612330.654 -22429865.191 10162576.759 10 0 59228 72900.00000 0 -6860725.341 -23475291.790 7186289.050 10 0 59228 73800.00000 0 -7116727.088 -24131017.917 4070122.652 10 0 59228 74700.00000 0 -7324628.847 -24389428.694 874680.479 10 0 59228 75600.00000 0 -7429333.608 -24256249.667 -2337806.421 10 0 59228 76500.00000 0 -7378930.352 -23750231.385 -5504702.137 10 0 59228 77400.00000 0 -7127146.268 -22902300.353 -8564202.865 10 0 59228 78300.00000 0 -6635568.730 -21754211.331 -11456561.772 10 0 59228 79200.00000 0 -5875539.981 -20356757.690 -14125275.811 10 0 59228 80100.00000 0 -4829641.418 -18767615.915 -16518209.118 10 0 59228 81000.00000 0 -3492701.991 -17048916.328 -18588629.102 10 0 59228 81900.00000 0 -1872285.845 -15264644.009 -20296133.330 10 0 59228 82800.00000 0 11362.988 -13477981.178 -21607447.763 10 0 59228 83700.00000 0 2125917.539 -11748704.584 -22497080.080 10 0 59228 84600.00000 0 4428081.810 -10130748.629 -22947815.121 10 0 59228 85500.00000 0 6865174.612 -8670037.462 -22951043.045 10 0 59229 0.00000 0 9377116.370 -7402677.097 -22506914.593 10 0 59229 900.00000 0 11898735.110 -6353582.913 -21624321.378 10 0 59229 1800.00000 0 14362293.933 -5535598.063 -20320703.195 10 0 59229 2700.00000 0 16700133.960 -4949138.967 -18621687.172 10 0 59229 3600.00000 0 18847322.135 -4582378.567 -16560567.596 10 0 59229 4500.00000 0 20744193.031 -4411957.986 -14177637.878 10 0 59229 5400.00000 0 22338679.385 -4404193.094 -11519389.048 10 0 59229 6300.00000 0 23588335.121 -4516722.597 -8637591.533 10 0 59229 7200.00000 0 24461967.932 -4700525.800 -5588279.109 10 0 59229 8100.00000 0 24940815.266 -4902223.114 -2430655.497 10 0 59229 9000.00000 0 25019216.811 -5066561.052 774054.824 10 0 59229 9900.00000 0 24704757.697 -5138976.316 3963789.047 10 0 59229 10800.00000 0 24017878.642 -5068130.873 7076839.158 10 0 59229 11700.00000 0 22990971.223 -4808311.656 10053033.258 10 0 59229 12600.00000 0 21666997.484 -4321594.688 12834883.171 10 0 59229 13500.00000 0 20097692.345 -3579683.561 15368677.488 10 0 59229 14400.00000 0 18341423.928 -2565345.866 17605500.549 10 0 59229 15300.00000 0 16460800.515 -1273387.930 19502159.308 10 0 59229 16200.00000 0 14520122.711 288872.928 21022002.005 10 0 59229 17100.00000 0 12582785.248 2101658.970 22135614.460 10 0 59229 18000.00000 0 10708734.716 4133304.550 22821381.851 10 0 59229 18900.00000 0 8952087.006 6341328.693 23065906.072 10 0 59229 19800.00000 0 7359001.756 8673965.635 22864271.015 10 0 59229 20700.00000 0 5965900.868 11072092.517 22220150.360 10 0 59229 21600.00000 0 4798104.321 13471477.223 21145755.001 10 0 59229 22500.00000 0 3868939.833 15805255.862 19661619.611 10 0 59229 23400.00000 0 3179363.880 18006539.374 17796230.606 10 0 59229 24300.00000 0 2718110.723 20011042.775 15585500.457 10 0 59229 25200.00000 0 2462364.436 21759628.612 13072096.153 10 0 59229 26100.00000 0 2378927.119 23200658.736 10304632.639 10 0 59229 27000.00000 0 2425835.475 24292055.513 7336744.937 10 0 59229 27900.00000 0 2554358.552 25002984.843 4226055.497 10 0 59229 28800.00000 0 2711292.793 25315088.436 1033056.166 10 0 59229 29700.00000 0 2841457.048 25223211.436 -2180073.595 10 0 59229 30600.00000 0 2890280.920 24735592.577 -5350688.629 10 0 59229 31500.00000 0 2806375.059 23873506.931 -8416914.978 10 0 59229 32400.00000 0 2543972.130 22670374.922 -11318875.946 10 0 59229 33300.00000 0 2065132.278 21170374.394 -13999881.401 10 0 59229 34200.00000 0 1341616.792 19426614.242 -16407554.889 10 0 59229 35100.00000 0 356347.906 17498947.220 -18494874.596 10 0 59229 36000.00000 0 -895609.480 15451515.205 -20221106.112 10 0 59229 36900.00000 0 -2406587.475 13350131.794 -21552607.461 10 0 59229 37800.00000 0 -4156397.000 11259613.830 -22463489.907 10 0 59229 38700.00000 0 -6112948.952 9241175.338 -22936121.438 10 0 59229 39600.00000 0 -8233388.608 7349994.230 -22961463.318 10 0 59229 40500.00000 0 -10465695.194 5633054.150 -22539233.894 10 0 59229 41400.00000 0 -12750678.850 4127351.479 -21677897.542 10 0 59229 42300.00000 0 -15024290.290 2858541.496 -20394480.260 10 0 59229 43200.00000 0 -17220145.695 1840078.487 -18714216.985 10 0 59229 44100.00000 0 -19272160.547 1072883.291 -16670038.988 10 0 59229 45000.00000 0 -21117181.892 545549.322 -14301912.806 10 0 59229 45900.00000 0 -22697509.152 235075.201 -11656044.956 10 0 59229 46800.00000 0 -23963198.745 108090.088 -8783969.046 10 0 59229 47700.00000 0 -24874057.199 122517.301 -5741534.091 10 0 59229 48600.00000 0 -25401241.022 229603.746 -2587814.417 10 0 59229 49500.00000 0 -25528398.261 376227.819 616037.294 10 0 59229 50400.00000 0 -25252306.012 507387.377 3807971.350 10 0 59229 51300.00000 0 -24582979.279 568762.412 6926234.174 10 0 59229 52200.00000 0 -23543248.386 509244.555 9910550.754 10 0 59229 53100.00000 0 -22167824.065 283327.504 12703274.395 10 0 59229 54000.00000 0 -20501890.114 -146741.336 15250482.929 10 0 59229 54900.00000 0 -18599282.590 -809137.471 17503001.774 10 0 59229 55800.00000 0 -16520331.025 -1721039.919 19417335.718 10 0 59229 56700.00000 0 -14329450.496 -2887674.845 20956493.262 10 0 59229 57600.00000 0 -12092583.109 -4301862.424 22090689.248 10 0 59229 58500.00000 0 -9874593.332 -5944086.599 22797913.504 10 0 59229 59400.00000 0 -7736723.247 -7783086.359 23064355.545 10 0 59229 60300.00000 0 -5734211.317 -9776946.068 22884677.498 10 0 59229 61200.00000 0 -3914171.828 -11874642.003 22262129.772 10 0 59229 62100.00000 0 -2313821.783 -14017983.741 21208506.423 10 0 59229 63000.00000 0 -959128.177 -16143872.569 19743939.638 10 0 59229 63900.00000 0 136068.072 -18186785.565 17896535.417 10 0 59229 64800.00000 0 970414.615 -20081384.112 15701855.293 10 0 59229 65700.00000 0 1554880.530 -21765139.565 13202251.740 10 0 59229 66600.00000 0 1912065.343 -23180866.976 10446067.955 10 0 59229 67500.00000 0 2075012.011 -24279060.678 7486715.569 10 0 59229 68400.00000 0 2085572.790 -25019932.739 4381646.725 10 0 59229 69300.00000 0 1992396.217 -25375066.916 1191239.735 10 0 59229 70200.00000 0 1848620.237 -25328616.334 -2022380.112 10 0 59229 71100.00000 0 1709369.726 -24877992.063 -5196561.104 10 0 59229 72000.00000 0 1629165.734 -24034011.208 -8269361.892 10 0 59229 72900.00000 0 1659358.245 -22820496.381 -11180778.733 10 0 59229 73800.00000 0 1845693.771 -21273341.999 -13873937.238 10 0 59229 74700.00000 0 2226123.547 -19439086.173 -16296223.127 10 0 59229 75600.00000 0 2828947.925 -17373048.370 -18400327.982 10 0 59229 76500.00000 0 3671378.001 -15137111.950 -20145187.820 10 0 59229 77400.00000 0 4758577.313 -12797246.007 -21496794.800 10 0 59229 78300.00000 0 6083225.595 -10420872.035 -22428865.479 10 0 59229 79200.00000 0 7625623.827 -8074187.251 -22923352.263 10 0 59229 80100.00000 0 9354336.352 -5819557.935 -22970788.353 10 0 59229 81000.00000 0 11227342.748 -3713092.531 -22570460.130 10 0 59229 81900.00000 0 13193650.347 -1802495.985 -21730404.685 10 0 59229 82800.00000 0 15195298.690 -125294.318 -20467233.853 10 0 59229 83700.00000 0 17169670.815 1292497.875 -18805789.607 10 0 59229 84600.00000 0 19052013.635 2437213.595 -16778639.045 10 0 59229 85500.00000 0 20778061.044 3307840.980 -14425420.285 10 0 59230 0.00000 0 22286649.672 3915792.614 -11792053.428 10 0 59230 900.00000 0 23522217.752 4284149.548 -8929832.760 10 0 59230 1800.00000 0 24437083.690 4446415.109 -5894419.822 10 0 59230 2700.00000 0 24993408.793 4444833.480 -2744756.441 10 0 59230 3600.00000 0 25164765.000 4328346.539 458079.844 10 0 59230 4500.00000 0 24937242.465 4150276.356 3652055.930 10 0 59230 5400.00000 0 24310053.031 3965832.103 6775376.166 10 0 59230 6300.00000 0 23295605.807 3829546.657 9767665.794 10 0 59230 7200.00000 0 21919053.120 3792750.479 12571122.787 10 0 59230 8100.00000 0 20217326.703 3901188.370 15131617.130 10 0 59230 9000.00000 0 18237704.618 4192878.261 17399717.923 10 0 59230 9900.00000 0 16035968.382 4696300.963 19331630.051 10 0 59230 10800.00000 0 13674225.986 5428996.007 20890024.194 10 0 59230 11700.00000 0 11218489.763 6396622.068 22044745.755 10 0 59230 12600.00000 0 8736107.776 7592521.479 22773390.389 10 0 59230 13500.00000 0 6293153.057 8997808.010 23061735.995 10 0 59230 14400.00000 0 3951876.705 10581975.875 22904023.268 10 0 59230 15300.00000 0 1768328.433 12304006.789 22303079.221 10 0 59230 16200.00000 0 -209758.420 14113931.593 21270280.477 10 0 59230 17100.00000 0 -1944730.841 15954784.297 19825355.665 10 0 59230 18000.00000 0 -3410356.172 17764869.752 17996028.850 10 0 59230 18900.00000 0 -4592682.435 19480252.858 15817508.705 10 0 59230 19800.00000 0 -5490382.458 21037367.154 13331830.907 10 0 59230 20700.00000 0 -6114566.362 22375634.683 10587064.336 10 0 59230 21600.00000 0 -6488069.154 23439987.599 7636394.437 10 0 59230 22500.00000 0 -6644242.220 24183184.916 4537100.061 10 0 59230 23400.00000 0 -6625298.759 24567825.517 1349442.889 10 0 59230 24300.00000 0 -6480282.646 24567970.524 -1864509.136 10 0 59230 25200.00000 0 -6262746.846 24170304.161 -5042100.913 10 0 59230 26100.00000 0 -6028240.632 23374781.552 -8121326.795 10 0 59230 27000.00000 0 -5831713.623 22194733.757 -11042058.926 10 0 59230 27900.00000 0 -5724948.886 20656423.652 -13747241.355 10 0 59230 28800.00000 0 -5754136.338 18798070.123 -16184024.399 10 0 59230 29700.00000 0 -5957691.887 16668381.102 -18304815.145 10 0 59230 30600.00000 0 -6364417.160 14324657.277 -20068221.814 10 0 59230 31500.00000 0 -6992079.745 11830546.978 -21439872.165 10 0 59230 32400.00000 0 -7846475.599 9253547.580 -22393089.163 10 0 59230 33300.00000 0 -8921014.160 6662359.434 -22909410.437 10 0 59230 34200.00000 0 -10196843.995 4124204.364 -22978941.567 10 0 59230 35100.00000 0 -11643513.424 1702221.735 -22600537.023 10 0 59230 36000.00000 0 -13220137.592 -546948.849 -21781806.273 10 0 59230 36900.00000 0 -14877021.815 -2575297.546 -20538946.197 10 0 59230 37800.00000 0 -16557671.782 -4345199.192 -18896404.597 10 0 59230 38700.00000 0 -18201105.009 -5830721.748 -16886382.790 10 0 59230 39600.00000 0 -19744365.474 -7018436.054 -14548188.504 10 0 59230 40500.00000 0 -21125135.253 -7907696.072 -11927453.052 10 0 59230 41400.00000 0 -22284333.313 -8510381.222 -9075229.174 10 0 59230 42300.00000 0 -23168592.626 -8850114.899 -6046988.201 10 0 59230 43200.00000 0 -23732512.398 -8960995.200 -2901536.747 10 0 59230 44100.00000 0 -23940592.016 -8885893.916 300125.598 10 0 59230 45000.00000 0 -23768767.024 -8674397.489 3495985.163 10 0 59230 45900.00000 0 -23205484.299 -8380478.045 6624207.105 10 0 59230 46800.00000 0 -22252272.874 -8059993.281 9624319.805 10 0 59230 47700.00000 0 -20923787.877 -7768120.425 12438368.732 10 0 59230 48600.00000 0 -19247326.619 -7556831.704 15012018.741 10 0 59230 49500.00000 0 -17261837.420 -7472516.472 17295585.128 10 0 59230 50400.00000 0 -15016462.269 -7553848.750 19244975.122 10 0 59230 51300.00000 0 -12568673.119 -7829988.508 20822523.468 10 0 59230 52200.00000 0 -9982077.715 -8319191.319 21997707.628 10 0 59230 53100.00000 0 -7323984.175 -9027884.224 22747730.134 10 0 59230 54000.00000 0 -4662822.941 -9950246.795 23057957.886 10 0 59230 54900.00000 0 -2065530.494 -11068315.910 22922210.351 10 0 59230 55800.00000 0 404999.020 -12352611.551 22342890.956 10 0 59230 56700.00000 0 2692290.748 -13763259.760 21330958.361 10 0 59230 57600.00000 0 4748397.631 -15251568.479 19905736.793 10 0 59230 58500.00000 0 6535653.812 -16761993.176 18094567.240 10 0 59230 59400.00000 0 8028000.326 -18234412.647 15932304.080 10 0 59230 60300.00000 0 9211827.589 -19606621.901 13460664.484 10 0 59230 61200.00000 0 10086298.573 -20816939.072 10727441.008 10 0 59230 62100.00000 0 10663138.114 -21806817.580 7785590.634 10 0 59230 63000.00000 0 10965895.971 -22523353.493 4692216.401 10 0 59230 63900.00000 0 11028713.546 -22921581.310 1507460.652 10 0 59230 64800.00000 0 10894645.629 -22966459.549 -1706668.852 10 0 59230 65700.00000 0 10613607.916 -22634459.890 -4887516.520 10 0 59230 66600.00000 0 10240037.601 -21914690.076 -7973015.309 10 0 59230 67500.00000 0 9830367.327 -20809500.459 -10902916.112 10 0 59230 68400.00000 0 9440421.285 -19334546.192 -13619984.180 10 0 59230 69300.00000 0 9122845.973 -17518300.571 -16071137.058 10 0 59230 70200.00000 0 8924686.949 -15401038.870 -18208499.760 10 0 59230 71100.00000 0 8885216.536 -13033334.922 -19990354.882 10 0 59230 72000.00000 0 9034106.573 -10474133.922 -21381967.633 10 0 59230 72900.00000 0 9390025.090 -7788483.046 -22356268.880 10 0 59230 73800.00000 0 9959717.312 -5045016.020 -22894382.560 10 0 59230 74700.00000 0 10737610.113 -2313298.158 -22985987.317 10 0 59230 75600.00000 0 11705956.422 338856.242 -22629506.007 10 0 59230 76500.00000 0 12835512.678 2847981.555 -21832120.391 10 0 59230 77400.00000 0 14086719.637 5157365.035 -20609611.993 10 0 59230 78300.00000 0 15411335.376 7219157.997 -18986033.703 10 0 59230 79200.00000 0 16754450.361 8996107.323 -16993220.004 10 0 59230 80100.00000 0 18056798.421 10462837.039 -14670146.859 10 0 59230 81000.00000 0 19257265.417 11606629.165 -12062155.137 10 0 59230 81900.00000 0 20295489.448 12427674.327 -9220053.849 10 0 59230 82800.00000 0 21114443.057 12938784.867 -6199121.771 10 0 59230 83700.00000 0 21662889.187 13164585.823 -3058027.597 10 0 59230 84600.00000 0 21897608.425 13140220.727 142309.971 10 0 59230 85500.00000 0 21785305.042 12909629.075 3339899.798 99